Location: Unspecified
(41.4057°N, 2.1753°E)
Time: 11:34:13
(UTC+01:00)

ISS - Visible Passes

Search period start: 07 February 2016 00:00
Search period end: 17 February 2016 00:00
Orbit: 399 x 408 km, 51.6° (Epoch: 07 February)

Date Brightness Start Highest point End Pass type
(mag) Time Alt. Az. Time Alt. Az. Time Alt. Az.
07 Feb -1.2 19:29:16 10° WNW 19:31:43 19° NNW 19:33:21 14° NNE visible
08 Feb -0.6 20:14:28 10° NW 20:15:35 13° NNW 20:15:35 13° NNW visible
09 Feb -1.0 19:21:22 10° NW 19:23:21 15° N 19:25:09 11° NNE visible
10 Feb -0.8 20:06:04 10° NNW 20:07:19 13° N 20:07:19 13° N visible
11 Feb -0.9 19:13:13 10° NNW 19:14:56 14° N 19:16:40 10° NNE visible
12 Feb -1.2 19:57:13 10° NNW 19:59:01 16° N 19:59:01 16° N visible
13 Feb -1.1 19:04:35 10° NNW 19:06:28 14° N 19:08:21 10° NE visible
13 Feb -0.4 20:40:38 10° NW 20:41:11 14° NW 20:41:11 14° NW visible
14 Feb -1.8 19:48:06 10° NW 19:50:46 23° NNE 19:50:46 23° NNE visible
15 Feb -1.4 18:55:33 10° NNW 18:57:52 18° NNE 19:00:10 10° ENE visible
15 Feb -1.2 20:31:31 10° NW 20:33:02 25° NW 20:33:02 25° NW visible
16 Feb -2.7 19:38:54 10° NW 19:41:59 39° NNE 19:42:44 33° ENE visible
